Location: Invercargill
(46.4000°S, 168.3500°E)
Time: 01:06:35
(UTC+12:00)

Cosmos 1242 Rocket - Pass Details

Date: 24 January 2019
Orbit: 450 x 489 km, 81.2° (Epoch: 19 April)

Event Time Altitude Azimuth Distance (km) Brightness Sun altitude
Rises 22:53:05 0° 194° (SSW) 2,610 7.4 -12.2°
Reaches altitude 10° 22:55:14 10° 196° (SSW) 1,721 6.4 -12.4°
Maximum altitude 22:58:59 66° 278° (W) 552 2.9 -12.9°
Enters shadow 23:02:08 14° 359° (N) 1,475 4.6 -13.2°
